Regional Weather Roundup
Issued by NWS

Home | Current Version | Previous Version | Graphics & Text | Print | Product List | Glossary On
Versions: 1 2 3 4 5 6 7 8 9 10 11 12 13 14 15 16 17 18 19 20 21 22 23 24 25 26 27 28 29 30 31 32 33 34 35 36 37 38 39 40 41 42 43 44 45 46 47 48 49 50
877
ASUS44 KJAN 281703
RWRMS

MISSISSIPPI HOURLY WEATHER ROUNDUP
NATIONAL WEATHER SERVICE JACKSON MS
1200 PM CDT THU AUG 28 2014

NOTE: "FAIR: INDICATES FEW OR NO CLOUDS BELOW 12,000 FEET WITH NO
SIGNIFICANT WEATHER AND/OR OBSTRUCTIONS TO VISIBILITY.

MSZ001>002-007>008-010>013-018>021-025>028-034>036-281800-
NORTHWEST MISSISSIPPI

CITY           SKY/WX    TMP DP  RH WIND       PRES   REMARKS
CLARKSDALE     FAIR      90  66  45 CALM      30.03F HX  92
CLEVELAND      FAIR      90  67  47 SE9       30.01F HX  92
GREENWOOD      SUNNY     90  67  46 CALM      30.02S HX  93
GREENVILLE     SUNNY     90  65  43 CALM      30.00F HX  92
GRENADA        FAIR      88  68  51 E3        30.02F HX  91
OLIVE BRANCH   MOSUNNY   88  64  45 SE6       30.04S
OXFORD         FAIR      86  63  45 S3        30.05S
TUNICA         SUNNY     90  63  40 S6        30.03F HX  90
$$

MSZ003>006-009-014>017-022>024-029>033-037>039-281800-
NORTHEAST MISSISSIPPI

CITY           SKY/WX    TMP DP  RH WIND       PRES   REMARKS
BELMONT        FAIR      86  70  57 SW3       30.03F HX  90
COLUMBUS AFB   SUNNY     91  59  33 VRB3      30.02F HX  90
CORINTH        FAIR      88  68  51 CALM      30.02F HX  91
GOLDN TRIANGLE MOSUNNY   91  61  35 S5        30.03F HX  91
STARKVILLE     FAIR      90  59  35 SE6       30.02F
TUPELO         PTSUNNY   89  65  44 SW6       30.02F HX  91
$$

MSZ040-058-281800-
CENTRAL MISSISSIPPI

CITY           SKY/WX    TMP DP  RH WIND       PRES   REMARKS
JACKSON INTL   MOSUNNY   93  62  35 VRB5      30.02F HX  93
JACKSON HAWKNS PTSUNNY   92  61  35 S7        30.02F HX  92
MERIDIAN KEY   NOT AVBL
MERIDIAN NAS   PTSUNNY   92  60  34 SW6       30.03S HX  91
RAYMOND        FAIR      90  82  79 N3        30.02F HX 111
VICKSBURG      PTSUNNY   91  71  51 E7        30.01S HX  97
$$

MSZ059>079-281800-
SOUTH MISSISSIPPI

CITY           SKY/WX    TMP DP  RH WIND       PRES   REMARKS
BROOKHAVEN     FAIR      84  72  65 E3        30.06S
COLUMBIA       FAIR      88  73  62 VRB5      30.02F HX  96
HATTIESBURG    PTSUNNY   89  70  53 SE6       30.04S HX  94
MCCOMB         PTSUNNY   89  68  49 MISG      30.03S HX  93
NATCHEZ        MOSUNNY   88  73  62 E8        30.03S HX  96
PINE BELT      PTSUNNY   88  68  51 SE3       30.05S HX  91
$$

MSZ080>082-281800-
COASTAL MISSISSIPPI

CITY           SKY/WX    TMP DP  RH WIND       PRES   REMARKS
BILOXI         PTSUNNY   91  75  57 S10       30.01F HX 102
PASCAGOULA     PTSUNNY   89  69  51 VRB3      30.01F HX  93
GULFPORT       MOSUNNY   90  66  45 VRB7      30.01S HX  92
$$



USA.gov is the U.S. government's official web portal to all federal, state and local government web resources and services.